Weather History for KAIB - April, 2014

Change the Weather History Date:

Wednesday, April 9, 2014

  Actual Average Record
Temperature  
Mean Temperature 52 °F -  
Max Temperature 71 °F - - ()
Min Temperature 33 °F - - ()
Degree Days  
Heating Degree Days 13    
Growing Degree Days 2 (Base 50)    
Moisture  
Dew Point 17 °F    
Average Humidity 29    
Maximum Humidity 56    
Minimum Humidity 10    
Precipitation  
Precipitation 0.00 in - - ()
Sea Level Pressure  
Sea Level Pressure 30.20 in    
Wind  
Wind Speed 9 mph (SSE)    
Max Wind Speed 22 mph    
Max Gust Speed 30 mph    
Visibility 10 miles    
Events      
T = Trace of Precipitation, MM = Missing Value Source: NWS Daily Summary

Daily Weather History Graph

Daily Weather History Graph

Search for Another Location

Airport or City:

Trip Planner

Search our weather history database for the weather conditions in past years. The results will help you decide how hot, cold, wet, or windy it might be!

Date:

Astronomy

Apr. 09, 2014 Rise Set
Actual Time 6:47 AM MDT 7:45 PM MDT
Civil Twilight 6:20 AM MDT 8:12 PM MDT
Nautical Twilight 5:48 AM MDT 8:44 PM MDT
Astronomical Twilight 5:15 AM MDT 9:17 PM MDT
Moon 2:40 PM MDT (4/9) 3:33 AM MDT (4/9)
Length of Visible Light 13h 51m
Length of Day
12h 57m
Waxing Gibbous, 72% of the Moon is Illuminated
Apr 9
Waxing Gibbous
Apr 15
Full
Apr 22
Last Quarter
Apr 29
New
May 6
First Quarter

Hourly Weather History & Observations

Time (MDT) Temp. Windchill Dew Point Humidity Pressure Visibility Wind Dir Wind Speed Gust Speed Precip Events Conditions
12:15 AM 44.6 °F 38.8 °F 21.2 °F 39% 30.31 in 10.0 mi East 11.5 mph - N/A   Unknown
12:35 AM 44.6 °F 39.2 °F 23.0 °F 43% 30.31 in 10.0 mi ESE 10.4 mph - N/A   Unknown
12:55 AM 42.8 °F 38.0 °F 23.0 °F 46% 30.31 in 10.0 mi East 8.1 mph - N/A   Unknown
1:15 AM 42.8 °F 38.0 °F 23.0 °F 46% 30.31 in 10.0 mi ESE 8.1 mph - N/A   Unknown
1:35 AM 42.8 °F 37.5 °F 23.0 °F 46% 30.31 in 10.0 mi East 9.2 mph - N/A   Unknown
1:55 AM 42.8 °F 37.5 °F 23.0 °F 46% 30.30 in 10.0 mi ESE 9.2 mph - N/A   Unknown
2:15 AM 42.8 °F 37.0 °F 23.0 °F 46% 30.29 in 10.0 mi ESE 10.4 mph - N/A   Unknown
2:35 AM 41.0 °F 35.2 °F 21.2 °F 45% 30.29 in 10.0 mi SE 9.2 mph - N/A   Unknown
2:55 AM 39.2 °F 32.5 °F 21.2 °F 49% 30.29 in 10.0 mi SE 10.4 mph - N/A   Unknown
3:15 AM 39.2 °F 32.5 °F 21.2 °F 49% 30.28 in 10.0 mi SE 10.4 mph - N/A   Unknown
3:35 AM 41.0 °F 34.7 °F 21.2 °F 45% 30.29 in 10.0 mi ESE 10.4 mph - N/A   Unknown
3:55 AM 37.4 °F 30.8 °F 21.2 °F 52% 30.28 in 10.0 mi ESE 9.2 mph - N/A   Unknown
4:15 AM 37.4 °F 30.8 °F 21.2 °F 52% 30.28 in 10.0 mi ESE 9.2 mph - N/A   Unknown
4:35 AM 37.4 °F - 21.2 °F 52% 30.28 in 10.0 mi Calm Calm - N/A   Unknown
4:55 AM 35.6 °F 29.9 °F 21.2 °F 56% 30.28 in 10.0 mi ESE 6.9 mph - N/A   Unknown
5:15 AM 35.6 °F 30.7 °F 19.4 °F 52% 30.27 in 10.0 mi ESE 5.8 mph - N/A   Unknown
5:35 AM 35.6 °F - 19.4 °F 52% 30.28 in 10.0 mi Calm Calm - N/A   Unknown
5:55 AM 35.6 °F 29.2 °F 19.4 °F 52% 30.27 in 10.0 mi ESE 8.1 mph - N/A   Unknown
6:15 AM 35.6 °F 29.9 °F 19.4 °F 52% 30.28 in 10.0 mi East 6.9 mph - N/A   Unknown
6:35 AM 33.8 °F 28.6 °F 19.4 °F 56% 30.28 in 10.0 mi East 5.8 mph - N/A   Unknown
6:55 AM 35.6 °F 31.7 °F 19.4 °F 52% 30.28 in 10.0 mi East 4.6 mph - N/A   Unknown
7:15 AM 35.6 °F 31.7 °F 19.4 °F 52% 30.29 in 10.0 mi East 4.6 mph - N/A   Unknown
7:35 AM 37.4 °F 32.1 °F 19.4 °F 48% 30.29 in 10.0 mi East 6.9 mph - N/A   Unknown
7:55 AM 39.2 °F 37.0 °F 19.4 °F 45% 30.29 in 10.0 mi SE 3.5 mph - N/A   Unknown
8:15 AM 41.0 °F 39.0 °F 19.4 °F 42% 30.29 in 10.0 mi SSE 3.5 mph - N/A   Unknown
8:35 AM 42.8 °F - 19.4 °F 39% 30.30 in 10.0 mi Calm Calm - N/A   Unknown
8:55 AM 44.6 °F - 21.2 °F 39% 30.29 in 10.0 mi Calm Calm - N/A   Unknown
9:15 AM 46.4 °F 45.2 °F 23.0 °F 40% 30.29 in 10.0 mi NNW 3.5 mph - N/A   Unknown
9:55 AM 50.0 °F - 23.0 °F 35% 30.28 in 10.0 mi Calm Calm - N/A   Unknown
10:15 AM 51.8 °F - 23.0 °F 33% 30.27 in 10.0 mi Calm Calm - N/A   Unknown
10:35 AM 55.4 °F - 24.8 °F 31% 30.27 in 10.0 mi Calm Calm - N/A   Unknown
10:55 AM 57.2 °F - 24.8 °F 29% 30.26 in 10.0 mi Calm Calm - N/A   Unknown
11:15 AM 59.0 °F - 24.8 °F 27% 30.25 in 10.0 mi Calm Calm - N/A   Unknown
11:35 AM 60.8 °F - 23.0 °F 23% 30.25 in 10.0 mi Calm Calm - N/A   Unknown
11:55 AM 62.6 °F - 24.8 °F 24% 30.23 in 10.0 mi NW 3.5 mph - N/A   Unknown
12:15 PM 64.4 °F - 23.0 °F 21% 30.22 in 10.0 mi Calm Calm - N/A   Unknown
12:35 PM 68.0 °F - 19.4 °F 16% 30.21 in 10.0 mi West 4.6 mph - N/A   Unknown
12:55 PM 68.0 °F - 17.6 °F 15% 30.20 in 10.0 mi Calm Calm - N/A   Unknown
1:15 PM 71.6 °F - 15.8 °F 12% 30.18 in 10.0 mi South 18.4 mph 23.0 mph N/A   Unknown
1:35 PM 71.6 °F - 15.8 °F 12% 30.17 in 10.0 mi SW 17.3 mph 27.6 mph N/A   Unknown
1:55 PM 71.6 °F - 15.8 °F 12% 30.16 in 10.0 mi SSW 19.6 mph 25.3 mph N/A   Unknown
2:15 PM 71.6 °F - 15.8 °F 12% 30.16 in 10.0 mi SSW 15.0 mph 27.6 mph N/A   Unknown
2:35 PM 71.6 °F - 14.0 °F 11% 30.14 in 10.0 mi SSW 17.3 mph 27.6 mph N/A   Unknown
2:55 PM 71.6 °F - 14.0 °F 11% 30.14 in 10.0 mi SSW 16.1 mph 23.0 mph N/A   Unknown
3:15 PM 71.6 °F - 14.0 °F 11% 30.12 in 10.0 mi SSW 19.6 mph 29.9 mph N/A   Unknown
3:35 PM 71.6 °F - 14.0 °F 11% 30.11 in 10.0 mi SW 21.9 mph 27.6 mph N/A   Unknown
3:55 PM 71.6 °F - 14.0 °F 11% 30.11 in 10.0 mi SSW 19.6 mph 26.5 mph N/A   Unknown
4:15 PM 71.6 °F - 14.0 °F 11% 30.11 in 10.0 mi SW 15.0 mph 24.2 mph N/A   Unknown
4:35 PM 71.6 °F - 14.0 °F 11% 30.10 in 10.0 mi SSW 18.4 mph 25.3 mph N/A   Unknown
4:55 PM 71.6 °F - 14.0 °F 11% 30.10 in 10.0 mi SSW 17.3 mph 27.6 mph N/A   Unknown
5:15 PM 71.6 °F - 14.0 °F 11% 30.09 in 10.0 mi SSW 15.0 mph 20.7 mph N/A   Unknown
5:35 PM 69.8 °F - 10.4 °F 10% 30.10 in 10.0 mi West 10.4 mph - N/A   Unknown
5:55 PM 69.8 °F - 10.4 °F 10% 30.10 in 10.0 mi WSW 6.9 mph 10.4 mph N/A   Unknown
6:15 PM 69.8 °F - 10.4 °F 10% 30.10 in 10.0 mi West 12.7 mph 19.6 mph N/A   Unknown
6:35 PM 68.0 °F - 8.6 °F 10% 30.09 in 10.0 mi West 12.7 mph 16.1 mph N/A   Unknown
6:55 PM 68.0 °F - 8.6 °F 10% 30.09 in 10.0 mi West 15.0 mph 23.0 mph N/A   Unknown
7:15 PM 66.2 °F - 8.6 °F 11% 30.09 in 10.0 mi West 11.5 mph - N/A   Unknown
7:35 PM 64.4 °F - 10.4 °F 12% 30.09 in 10.0 mi West 9.2 mph - N/A   Unknown
7:55 PM 60.8 °F - 10.4 °F 14% 30.10 in 10.0 mi WSW 8.1 mph - N/A   Unknown
8:15 PM 60.8 °F - 10.4 °F 14% 30.10 in 10.0 mi West 8.1 mph - N/A   Unknown
8:35 PM 59.0 °F - 10.4 °F 15% 30.11 in 10.0 mi SW 5.8 mph - N/A   Unknown
8:55 PM 60.8 °F - 10.4 °F 14% 30.11 in 10.0 mi SW 4.6 mph - N/A   Unknown
9:15 PM 60.8 °F - 10.4 °F 14% 30.11 in 10.0 mi SSW 4.6 mph - N/A   Unknown
9:35 PM 53.6 °F - 12.2 °F 19% 30.11 in 10.0 mi East 10.4 mph - N/A   Unknown
9:55 PM 51.8 °F - 10.4 °F 19% 30.11 in 10.0 mi East 9.2 mph - N/A   Unknown
10:15 PM 51.8 °F - 10.4 °F 19% 30.11 in 10.0 mi ESE 6.9 mph - N/A   Unknown
10:35 PM 51.8 °F - 10.4 °F 19% 30.11 in 10.0 mi East 8.1 mph - N/A   Unknown
10:55 PM 51.8 °F - 10.4 °F 19% 30.11 in 10.0 mi East 9.2 mph - N/A   Unknown
11:15 PM 50.0 °F - 10.4 °F 20% 30.10 in 10.0 mi ENE 11.5 mph - N/A   Unknown
11:35 PM 50.0 °F - 10.4 °F 20% 30.11 in 10.0 mi East 10.4 mph - N/A   Unknown
11:55 PM 50.0 °F - 12.2 °F 22% 30.11 in 10.0 mi East 11.5 mph - N/A   Unknown